Portada
METAR-TAF:

METAR-TAF

Aeroports :

València, Espanya

latitud: 39-37-26N, longitud: 0-28-26W, altitud: 127 m

Observació

L'informe es va fer fa 38 minuts, a les 17:30 UTC
Vent 2 kt amb direcció variable
Temperatura 18°C
Humitat 94%
Pressió 1014 hPa
Visibilitat 10 km o més
sense núvols per sota de 1500 mi sense presència de cumulonimbus.

METAR: LEBT 191730Z AUTO VRB02KT CAVOK 18/17 Q1014

Hora: 20:08 (18:08 UTC)


TAF: manca

Observacions i pronòstics meteorològics de més de 4000 aeroports (METAR i TAF).

Les estacions disponibles són els punts grocs i vermells al mapa.

Posi el ratolí al punt desitjat per veure el nom de l'estació.

Feu clic per veure les observacions i els pronòstics meteorològics.

Per canviar el mapa: feu clic els botons verds amb una creu de color negre per apropar; al botó verd amb un guió per allunyar la imatge; o en les fletxes verdes per a mapes adjacents.


METAR-TAF: